Location: Unspecified
(0.0000°N, 0.0000°E)
Time: 22:38:39
(UTC+00:00)

Triad OI-1X - Visible Passes

Search period start: 06 June 2023 00:00
Search period end: 16 June 2023 00:00
Orbit: 690 x 762 km, 90.0° (Epoch: 06 June)

Date Brightness Start Highest point End Pass type
(mag) Time Alt. Az. Time Alt. Az. Time Alt. Az.
11 Jun 9.4 20:19:01 11° NNE 20:19:01 11° NNE 20:19:18 10° NNE visible
12 Jun 9.9 21:09:23 11° NNW 21:09:23 11° NNW 21:09:38 10° NNW visible
13 Jun 9.1 20:20:22 17° N 20:20:22 17° N 20:21:34 10° N visible
14 Jun 9.8 21:10:41 13° NW 21:10:41 13° NW 21:11:20 10° NW visible
15 Jun 8.6 20:21:38 25° N 20:21:38 25° N 20:23:45 10° N visible
